Location: Quaker Farms
(41.4276°N, 73.1557°W)
Time: 09:57:53
(UTC+00:00)

Tianhe-1 - Visible Passes

Search period start: 22 June 2021 00:00
Search period end: 02 July 2021 00:00
Orbit: 375 x 386 km, 41.5° (Epoch: 22 June)

Date Brightness Start Highest point End Pass type
(mag) Time Alt. Az. Time Alt. Az. Time Alt. Az.
22 Jun 2.9 07:01:22 21° ESE 07:01:22 21° ESE 07:03:03 10° E visible
22 Jun 1.0 08:33:46 10° WSW 08:36:54 77° S 08:40:04 10° E visible
23 Jun 1.1 07:35:07 40° SW 07:35:57 57° SSE 07:39:03 10° E visible
24 Jun 3.1 06:36:45 20° E 06:36:45 20° E 06:38:00 10° E visible
24 Jun 1.0 08:08:52 13° W 08:11:40 90° SE 08:14:50 10° E visible
25 Jun 0.8 07:10:32 73° SSW 07:10:41 76° S 07:13:50 10° E visible
25 Jun 1.0 08:44:17 10° W 08:47:26 87° S 08:50:36 10° E visible
26 Jun 3.7 06:12:14 14° E 06:12:14 14° E 06:12:48 10° E visible
26 Jun 1.0 07:44:21 19° W 07:46:25 86° N 07:49:35 10° E visible
27 Jun 1.7 06:46:09 49° E 06:46:09 49° E 06:48:34 10° E visible
27 Jun 1.0 08:19:02 10° W 08:22:10 72° SSW 08:25:18 10° ESE visible
28 Jun 0.9 07:20:12 41° W 07:21:10 88° S 07:24:18 10° E visible
29 Jun 3.4 06:22:23 18° E 06:22:23 18° E 06:23:17 10° E visible
29 Jun 1.1 07:54:33 16° W 07:56:50 53° SSW 07:59:55 10° ESE visible
30 Jun 2.3 06:57:07 32° ESE 06:57:07 32° ESE 06:59:00 10° ESE visible
30 Jun 2.3 08:29:47 10° W 08:32:20 23° SSW 08:34:54 10° SSE visible
01 Jul 2.3 07:32:33 26° SSE 07:32:33 26° SSE 07:34:22 10° SE visible
